| time (UTC) | temp F | wind direction | speed MPH | gust MPH | rain 1hr in | rain 24hr in | rain mn in | humidity % | barometer mb |
| 20260507164011 | 51 | 253 | 6.0 | 9.0 | 0.00 | 0.10 | 0.10 | 92 | 1001.0 |
| 20260507163508 | 51 | 288 | 6.0 | 11.0 | 0.00 | 0.10 | 0.10 | 92 | 1000.8 |
| 20260507163024 | 51 | 245 | 8.0 | 11.0 | 0.00 | 0.10 | 0.10 | 92 | 1001.3 |
| 20260507162510 | 51 | 277 | 6.0 | 12.0 | 0.00 | 0.10 | 0.10 | 92 | 1001.2 |
| 20260507162010 | 51 | 281 | 5.0 | 15.0 | 0.00 | 0.10 | 0.10 | 92 | 1001.2 |
| 20260507161532 | 51 | 273 | 6.0 | 16.0 | 0.00 | 0.10 | 0.10 | 92 | 1001.2 |
| 20260507161008 | 51 | 281 | 9.0 | 16.0 | 0.00 | 0.10 | 0.10 | 92 | 1001.4 |
| 20260507160510 | 51 | 18 | 5.0 | 9.0 | 0.00 | 0.10 | 0.10 | 92 | 1001.3 |
| 20260507160029 | 51 | 264 | 4.0 | 7.0 | 0.00 | 0.10 | 0.10 | 92 | 1001.2 |
| 20260507155513 | 51 | 171 | 3.0 | 9.0 | 0.00 | 0.10 | 0.10 | 92 | 1000.9 |
| 20260507155011 | 51 | 284 | 4.0 | 10.0 | 0.00 | 0.10 | 0.10 | 92 | 1001.7 |
| 20260507154529 | 51 | 243 | 6.0 | 10.0 | 0.00 | 0.10 | 0.10 | 92 | 1001.8 |
| 20260507154010 | 51 | 226 | 4.0 | 8.0 | 0.00 | 0.10 | 0.10 | 92 | 1001.7 |
| 20260507153507 | 51 | 305 | 4.0 | 12.0 | 0.00 | 0.10 | 0.10 | 92 | 1001.8 |
| 20260507153037 | 51 | 257 | 6.0 | 12.0 | 0.00 | 0.10 | 0.10 | 92 | 1002.0 |
| 20260507152508 | 51 | 240 | 4.0 | 7.0 | 0.01 | 0.10 | 0.10 | 92 | 1001.9 |
| 20260507152009 | 51 | 233 | 4.0 | 7.0 | 0.01 | 0.10 | 0.10 | 92 | 1001.7 |
| 20260507151526 | 51 | 229 | 3.0 | 9.0 | 0.02 | 0.10 | 0.10 | 92 | 1001.2 |
| 20260507151008 | 51 | 191 | 5.0 | 9.0 | 0.03 | 0.10 | 0.10 | 92 | 1001.5 |
| 20260507150509 | 51 | 200 | 5.0 | 9.0 | 0.03 | 0.10 | 0.10 | 92 | 1001.8 |
| 20260507150030 | 52 | 219 | 5.0 | 10.0 | 0.03 | 0.10 | 0.10 | 92 | 1002.0 |
| 20260507145508 | 52 | 234 | 4.0 | 10.0 | 0.03 | 0.10 | 0.10 | 92 | 1002.5 |
| 20260507145011 | 52 | 226 | 4.0 | 10.0 | 0.03 | 0.09 | 0.09 | 92 | 1002.4 |
| 20260507144526 | 52 | 214 | 5.0 | 11.0 | 0.03 | 0.09 | 0.09 | 92 | 1002.2 |
| 20260507144012 | 52 | 212 | 4.0 | 11.0 | 0.03 | 0.09 | 0.09 | 92 | 1001.9 |
| 20260507143510 | 52 | 221 | 5.0 | 15.0 | 0.03 | 0.09 | 0.09 | 91 | 1001.9 |
| 20260507143027 | 52 | 243 | 7.0 | 15.0 | 0.03 | 0.09 | 0.09 | 91 | 1002.3 |
| 20260507142506 | 52 | 185 | 5.0 | 14.0 | 0.02 | 0.08 | 0.08 | 91 | 1002.6 |
| 20260507142009 | 52 | 280 | 6.0 | 13.0 | 0.02 | 0.08 | 0.08 | 91 | 1002.3 |
| 20260507141523 | 53 | 266 | 7.0 | 12.0 | 0.01 | 0.07 | 0.07 | 91 | 1002.0 |
| 20260507141008 | 53 | 191 | 6.0 | 13.0 | 0.00 | 0.07 | 0.07 | 91 | 1001.7 |
| 20260507140507 | 53 | 232 | 7.0 | 13.0 | 0.00 | 0.07 | 0.07 | 91 | 1001.7 |
| 20260507140025 | 53 | 211 | 4.0 | 11.0 | 0.00 | 0.07 | 0.07 | 90 | 1001.7 |
| 20260507135508 | 53 | 236 | 5.0 | 13.0 | 0.00 | 0.06 | 0.06 | 90 | 1002.0 |
| 20260507135011 | 53 | 211 | 7.0 | 14.0 | 0.00 | 0.06 | 0.06 | 89 | 1001.8 |
| 20260507134526 | 53 | 245 | 10.0 | 14.0 | 0.00 | 0.06 | 0.06 | 89 | 1002.4 |
| 20260507134008 | 53 | 274 | 8.0 | 14.0 | 0.00 | 0.06 | 0.06 | 89 | 1002.4 |
| 20260507133513 | 53 | 220 | 8.0 | 17.0 | 0.00 | 0.06 | 0.06 | 88 | 1002.1 |
| 20260507133014 | 53 | 242 | 10.0 | 17.0 | 0.00 | 0.06 | 0.06 | 88 | 1002.2 |
| 20260507132505 | 54 | 246 | 10.0 | 17.0 | 0.00 | 0.06 | 0.06 | 87 | 1002.1 |
| 20260507132007 | 54 | 204 | 8.0 | 20.0 | 0.00 | 0.06 | 0.06 | 87 | 1001.8 |
| 20260507131508 | 54 | 184 | 10.0 | 20.0 | 0.00 | 0.06 | 0.06 | 87 | 1002.1 |
| 20260507131004 | 54 | 221 | 12.0 | 20.0 | 0.00 | 0.06 | 0.06 | 87 | 1002.1 |
| 20260507130505 | 54 | 257 | 11.0 | 21.0 | 0.00 | 0.06 | 0.06 | 87 | 1002.4 |
| 20260507130012 | 54 | 242 | 10.0 | 21.0 | 0.00 | 0.06 | 0.06 | 88 | 1002.5 |
| 20260507125505 | 54 | 252 | 8.0 | 15.0 | 0.00 | 0.06 | 0.06 | 89 | 1002.6 |
| 20260507125008 | 54 | 264 | 6.0 | 14.0 | 0.00 | 0.06 | 0.06 | 89 | 1002.4 |
| 20260507124511 | 54 | 215 | 7.0 | 15.0 | 0.00 | 0.06 | 0.06 | 89 | 1002.1 |
| 20260507124006 | 54 | 181 | 8.0 | 15.0 | 0.00 | 0.06 | 0.06 | 89 | 1002.1 |
| 20260507123504 | 54 | 197 | 9.0 | 15.0 | 0.00 | 0.06 | 0.06 | 89 | 1002.1 |
| 20260507123015 | 54 | 251 | 9.0 | 16.0 | 0.00 | 0.06 | 0.06 | 89 | 1001.8 |
| 20260507122504 | 54 | 251 | 10.0 | 16.0 | 0.00 | 0.06 | 0.06 | 89 | 1001.8 |
| 20260507122009 | 54 | 192 | 9.0 | 18.0 | 0.00 | 0.06 | 0.06 | 89 | 1002.2 |
| 20260507121518 | 54 | 217 | 12.0 | 20.0 | 0.00 | 0.06 | 0.06 | 89 | 1001.9 |
| 20260507121008 | 54 | 193 | 11.0 | 20.0 | 0.00 | 0.06 | 0.06 | 89 | 1001.8 |
| 20260507120511 | 54 | 211 | 8.0 | 20.0 | 0.00 | 0.06 | 0.06 | 89 | 1001.9 |
| 20260507120021 | 54 | 206 | 12.0 | 20.0 | 0.00 | 0.06 | 0.06 | 89 | 1002.0 |
| 20260507115504 | 54 | 192 | 11.0 | 20.0 | 0.00 | 0.06 | 0.06 | 89 | 1002.2 |
| 20260507115003 | 54 | 184 | 9.0 | 22.0 | 0.01 | 0.06 | 0.06 | 89 | 1001.9 |
| 20260507114508 | 54 | 185 | 12.0 | 25.0 | 0.01 | 0.06 | 0.06 | 89 | 1002.0 |
| 20260507114009 | 54 | 224 | 13.0 | 25.0 | 0.01 | 0.06 | 0.06 | 89 | 1002.0 |
| 20260507113504 | 54 | 218 | 12.0 | 21.0 | 0.01 | 0.06 | 0.06 | 89 | 1001.7 |
| 20260507113009 | 54 | 214 | 13.0 | 24.0 | 0.01 | 0.06 | 0.06 | 89 | 1001.4 |
| 20260507112505 | 54 | 200 | 11.0 | 24.0 | 0.01 | 0.06 | 0.06 | 90 | 1000.9 |
| 20260507112005 | 54 | 142 | 8.0 | 17.0 | 0.01 | 0.06 | 0.06 | 90 | 1000.7 |
| 20260507111516 | 54 | 219 | 11.0 | 16.0 | 0.01 | 0.06 | 0.06 | 91 | 1000.9 |
| 20260507111006 | 54 | 164 | 9.0 | 16.0 | 0.01 | 0.06 | 0.06 | 91 | 1001.3 |
| 20260507110505 | 54 | 165 | 6.0 | 18.0 | 0.00 | 0.05 | 0.05 | 91 | 1001.5 |
| 20260507110023 | 54 | 209 | 10.0 | 18.0 | 0.00 | 0.05 | 0.05 | 91 | 1001.5 |
| 20260507105508 | 54 | 162 | 9.0 | 14.0 | 0.01 | 0.05 | 0.05 | 91 | 1001.6 |
| 20260507105006 | 54 | 210 | 9.0 | 16.0 | 0.00 | 0.04 | 0.04 | 91 | 1002.1 |
| 20260507104521 | 54 | 231 | 10.0 | 16.0 | 0.00 | 0.04 | 0.04 | 90 | 1001.9 |
| 20260507104010 | 55 | 203 | 7.0 | 18.0 | 0.00 | 0.04 | 0.04 | 90 | 1002.0 |
| 20260507103503 | 55 | 253 | 10.0 | 18.0 | 0.00 | 0.04 | 0.04 | 90 | 1002.0 |
| 20260507103010 | 55 | 205 | 10.0 | 22.0 | 0.00 | 0.04 | 0.04 | 90 | 1002.0 |
| 20260507102504 | 55 | 246 | 11.0 | 22.0 | 0.00 | 0.04 | 0.04 | 91 | 1001.9 |
| 20260507102006 | 55 | 207 | 12.0 | 24.0 | 0.00 | 0.04 | 0.04 | 91 | 1001.9 |
| 20260507101510 | 55 | 188 | 16.0 | 25.0 | 0.00 | 0.04 | 0.04 | 91 | 1001.8 |
| 20260507101005 | 55 | 235 | 12.0 | 25.0 | 0.00 | 0.04 | 0.04 | 91 | 1001.9 |
| 20260507100506 | 55 | 190 | 14.0 | 23.0 | 0.00 | 0.04 | 0.04 | 91 | 1001.7 |
| 20260507100024 | 56 | 195 | 13.0 | 26.0 | 0.00 | 0.04 | 0.04 | 91 | 1001.8 |
| 20260507095508 | 56 | 198 | 13.0 | 31.0 | 0.00 | 0.03 | 0.03 | 91 | 1001.6 |
| 20260507095008 | 56 | 214 | 14.0 | 31.0 | 0.00 | 0.03 | 0.03 | 90 | 1001.2 |
| 20260507094526 | 56 | 165 | 13.0 | 29.0 | 0.00 | 0.03 | 0.03 | 90 | 1001.3 |
| 20260507094007 | 56 | 229 | 14.0 | 29.0 | 0.00 | 0.03 | 0.03 | 90 | 1001.1 |
| 20260507093507 | 56 | 264 | 18.0 | 29.0 | 0.00 | 0.03 | 0.03 | 90 | 1000.9 |
| 20260507093022 | 56 | 247 | 12.0 | 28.0 | 0.00 | 0.03 | 0.03 | 90 | 1000.7 |
| 20260507092513 | 56 | 172 | 16.0 | 32.0 | 0.00 | 0.03 | 0.03 | 90 | 1000.7 |
| 20260507092007 | 55 | 163 | 16.0 | 32.0 | 0.00 | 0.03 | 0.03 | 90 | 1000.9 |
| 20260507091507 | 55 | 150 | 14.0 | 29.0 | 0.00 | 0.03 | 0.03 | 90 | 1001.0 |
| 20260507091004 | 55 | 128 | 11.0 | 28.0 | 0.00 | 0.03 | 0.03 | 90 | 1001.0 |
| 20260507090503 | 55 | 160 | 15.0 | 28.0 | 0.00 | 0.03 | 0.03 | 90 | 1001.0 |
| 20260507090013 | 55 | 169 | 18.0 | 28.0 | 0.00 | 0.03 | 0.03 | 90 | 1000.9 |
| 20260507085507 | 55 | 141 | 14.0 | 25.0 | 0.00 | 0.03 | 0.03 | 90 | 1001.0 |
| 20260507085006 | 55 | 228 | 16.0 | 25.0 | 0.00 | 0.03 | 0.03 | 90 | 1001.1 |
| 20260507084519 | 55 | 167 | 14.0 | 28.0 | 0.00 | 0.03 | 0.03 | 90 | 1001.1 |
| 20260507084009 | 55 | 206 | 13.0 | 31.0 | 0.00 | 0.03 | 0.03 | 90 | 1001.1 |
| 20260507083508 | 55 | 167 | 17.0 | 31.0 | 0.00 | 0.03 | 0.03 | 90 | 1001.1 |
| 20260507083022 | 55 | 128 | 16.0 | 26.0 | 0.00 | 0.03 | 0.03 | 89 | 1001.1 |
| 20260507082505 | 55 | 167 | 13.0 | 27.0 | 0.00 | 0.03 | 0.03 | 89 | 1001.4 |
| 20260507082010 | 55 | 183 | 16.0 | 27.0 | 0.00 | 0.03 | 0.03 | 89 | 1001.6 |
| 20260507081523 | 55 | 190 | 13.0 | 28.0 | 0.00 | 0.03 | 0.03 | 89 | 1001.8 |
| 20260507081008 | 55 | 150 | 15.0 | 31.0 | 0.00 | 0.03 | 0.03 | 88 | 1001.9 |
| 20260507080509 | 56 | 138 | 14.0 | 34.0 | 0.00 | 0.03 | 0.03 | 88 | 1002.1 |
| 20260507080034 | 56 | 172 | 14.0 | 34.0 | 0.00 | 0.03 | 0.03 | 88 | 1002.3 |
| 20260507075503 | 56 | 87 | 14.0 | 33.0 | 0.00 | 0.03 | 0.03 | 88 | 1002.4 |
| 20260507075004 | 56 | 141 | 16.0 | 30.0 | 0.00 | 0.03 | 0.03 | 88 | 1002.3 |
| 20260507074514 | 56 | 245 | 16.0 | 36.0 | 0.00 | 0.03 | 0.03 | 88 | 1002.4 |
| 20260507074009 | 56 | 129 | 16.0 | 36.0 | 0.00 | 0.03 | 0.03 | 88 | 1002.3 |
| 20260507073507 | 56 | 107 | 16.0 | 35.0 | 0.00 | 0.03 | 0.03 | 87 | 1002.8 |
| 20260507073020 | 56 | 157 | 18.0 | 40.0 | 0.00 | 0.03 | 0.03 | 87 | 1002.8 |
| 20260507072508 | 56 | 146 | 14.0 | 40.0 | 0.00 | 0.03 | 0.03 | 86 | 1002.8 |
| 20260507072008 | 57 | 186 | 15.0 | 32.0 | 0.00 | 0.02 | 0.02 | 86 | 1003.0 |
| 20260507071555 | 56 | 155 | 13.0 | 32.0 | 0.00 | 0.02 | 0.02 | 87 | 1002.9 |
| 20260507071008 | 56 | 150 | 13.0 | 25.0 | 0.00 | 0.02 | 0.02 | 87 | 1003.2 |
| 20260507070514 | 56 | 162 | 12.0 | 30.0 | 0.00 | 0.02 | 0.02 | 87 | 1003.4 |
| 20260507070026 | 56 | 191 | 14.0 | 30.0 | 0.00 | 0.02 | 0.02 | 87 | 1003.5 |
| 20260507065508 | 56 | 148 | 15.0 | 28.0 | 0.00 | 0.02 | 0.02 | 87 | 1003.3 |
| 20260507065010 | 57 | 162 | 12.0 | 22.0 | 0.00 | 0.02 | 0.02 | 87 | 1003.5 |
| 20260507064527 | 57 | 206 | 13.0 | 23.0 | 0.00 | 0.02 | 0.02 | 87 | 1003.8 |
| 20260507064008 | 57 | 182 | 11.0 | 23.0 | 0.01 | 0.02 | 0.02 | 87 | 1003.8 |
| 20260507063504 | 57 | 161 | 10.0 | 26.0 | 0.01 | 0.02 | 0.02 | 86 | 1004.0 |
| 20260507063015 | 57 | 207 | 12.0 | 26.0 | 0.01 | 0.02 | 0.02 | 86 | 1004.2 |
| 20260507062509 | 57 | 200 | 16.0 | 24.0 | 0.01 | 0.02 | 0.02 | 86 | 1004.3 |
| 20260507062005 | 57 | 158 | 9.0 | 26.0 | 0.01 | 0.02 | 0.02 | 86 | 1004.4 |
| 20260507061519 | 57 | 148 | 11.0 | 26.0 | 0.01 | 0.02 | 0.02 | 86 | 1004.5 |
| 20260507061007 | 57 | 125 | 11.0 | 24.0 | 0.02 | 0.02 | 0.02 | 86 | 1004.7 |
| 20260507060507 | 57 | 147 | 12.0 | 26.0 | 0.02 | 0.02 | 0.02 | 86 | 1004.8 |
| 20260507060024 | 57 | 169 | 10.0 | 26.0 | 0.02 | 0.02 | 0.02 | 86 | 1005.0 |
| 20260507055509 | 57 | 152 | 15.0 | 26.0 | 0.02 | 0.02 | 0.02 | 85 | 1005.3 |
| 20260507055015 | 57 | 148 | 12.0 | 26.0 | 0.01 | 0.01 | 0.01 | 84 | 1005.6 |
| 20260507054523 | 58 | 141 | 15.0 | 27.0 | 0.01 | 0.01 | 0.01 | 83 | 1005.6 |
| 20260507054012 | 58 | 190 | 16.0 | 27.0 | 0.00 | 0.00 | 0.00 | 83 | 1005.6 |
| 20260507053509 | 58 | 171 | 13.0 | 25.0 | 0.00 | 0.00 | 0.00 | 83 | 1005.8 |
| 20260507053039 | 58 | 163 | 15.0 | 25.0 | 0.00 | 0.00 | 0.00 | 82 | 1006.1 |
| 20260507052510 | 58 | 162 | 11.0 | 23.0 | 0.00 | 0.00 | 0.00 | 82 | 1006.3 |
| 20260507052007 | 58 | 179 | 11.0 | 20.0 | 0.00 | 0.00 | 0.00 | 82 | 1006.4 |
| 20260507051527 | 58 | 165 | 10.0 | 25.0 | 0.00 | 0.00 | 0.00 | 81 | 1006.6 |
| 20260507051003 | 58 | 143 | 12.0 | 25.0 | 0.00 | 0.00 | 0.00 | 81 | 1006.7 |
| 20260507050510 | 58 | 146 | 10.0 | 25.0 | 0.00 | 0.00 | 0.00 | 81 | 1006.8 |
| 20260507050031 | 58 | 176 | 14.0 | 25.0 | 0.00 | 0.00 | 0.00 | 81 | 1007.0 |
| 20260507045510 | 59 | 162 | 7.0 | 24.0 | 0.00 | 0.00 | 0.00 | 81 | 1007.2 |
| 20260507045010 | 59 | 168 | 14.0 | 24.0 | 0.00 | 0.00 | 0.00 | 80 | 1006.9 |
| 20260507044524 | 59 | 143 | 12.0 | 22.0 | 0.00 | 0.00 | 0.00 | 80 | 1007.0 |
| 20260507044009 | 59 | 148 | 10.0 | 26.0 | 0.00 | 0.00 | 0.00 | 80 | 1006.8 |
| 20260507043507 | 59 | 203 | 12.0 | 26.0 | 0.00 | 0.00 | 0.00 | 80 | 1006.8 |
| 20260507043011 | 59 | 183 | 15.0 | 26.0 | 0.00 | 0.00 | 0.00 | 79 | 1007.0 |
| 20260507042503 | 60 | 162 | 17.0 | 26.0 | 0.00 | 0.00 | 0.00 | 79 | 1007.3 |
| 20260507042002 | 60 | 146 | 10.0 | 27.0 | 0.00 | 0.00 | 0.00 | 79 | 1007.4 |
| 20260507041513 | 60 | 144 | 14.0 | 27.0 | 0.00 | 0.00 | 0.00 | 79 | 1007.5 |
| 20260507041004 | 60 | 223 | 11.0 | 23.0 | 0.00 | 0.00 | 0.00 | 78 | 1007.5 |
| 20260507040512 | 60 | 169 | 8.0 | 22.0 | 0.00 | 0.00 | 0.00 | 78 | 1007.9 |
| 20260507040018 | 60 | 161 | 10.0 | 27.0 | 0.00 | 0.00 | 0.00 | 78 | 1008.0 |
| 20260507035505 | 60 | 198 | 15.0 | 27.0 | 0.00 | 0.00 | 0.00 | 77 | 1008.0 |
| 20260507035008 | 60 | 199 | 12.0 | 23.0 | 0.00 | 0.00 | 0.00 | 77 | 1008.4 |
| 20260507034533 | 60 | 140 | 14.0 | 23.0 | 0.00 | 0.00 | 0.00 | 77 | 1008.2 |
| 20260507034004 | 60 | 157 | 9.0 | 20.0 | 0.00 | 0.00 | 0.00 | 78 | 1008.2 |
| 20260507033503 | 60 | 205 | 11.0 | 19.0 | 0.00 | 0.00 | 0.00 | 78 | 1008.2 |
| 20260507033013 | 60 | 150 | 11.0 | 17.0 | 0.00 | 0.00 | 0.00 | 78 | 1008.3 |
| 20260507032506 | 60 | 204 | 9.0 | 17.0 | 0.00 | 0.00 | 0.00 | 78 | 1008.4 |
| 20260507032007 | 60 | 207 | 8.0 | 20.0 | 0.00 | 0.00 | 0.00 | 78 | 1008.2 |
| 20260507031510 | 60 | 176 | 9.0 | 21.0 | 0.00 | 0.00 | 0.00 | 78 | 1008.2 |
| 20260507031004 | 59 | 159 | 13.0 | 21.0 | 0.00 | 0.00 | 0.00 | 79 | 1008.3 |
| 20260507030506 | 59 | 174 | 9.0 | 16.0 | 0.00 | 0.00 | 0.00 | 80 | 1008.6 |
| 20260507030015 | 59 | 195 | 10.0 | 21.0 | 0.00 | 0.00 | 0.00 | 80 | 1008.7 |
| 20260507025506 | 59 | 171 | 13.0 | 21.0 | 0.00 | 0.00 | 0.00 | 79 | 1008.7 |
| 20260507025005 | 59 | 133 | 11.0 | 18.0 | 0.00 | 0.00 | 0.00 | 78 | 1008.4 |
| 20260507024519 | 59 | 152 | 8.0 | 13.0 | 0.00 | 0.00 | 0.00 | 78 | 1008.7 |
| 20260507024006 | 59 | 167 | 6.0 | 13.0 | 0.00 | 0.00 | 0.00 | 77 | 1009.2 |
| 20260507023511 | 59 | 143 | 8.0 | 15.0 | 0.00 | 0.00 | 0.00 | 77 | 1009.2 |
| 20260507023027 | 59 | 176 | 7.0 | 15.0 | 0.00 | 0.00 | 0.00 | 77 | 1009.3 |
| 20260507022507 | 59 | 155 | 6.0 | 11.0 | 0.00 | 0.00 | 0.00 | 77 | 1009.8 |
| 20260507022006 | 59 | 164 | 6.0 | 14.0 | 0.00 | 0.00 | 0.00 | 77 | 1009.8 |
| 20260507021505 | 59 | 160 | 7.0 | 14.0 | 0.00 | 0.00 | 0.00 | 76 | 1010.2 |
| 20260507021004 | 59 | 172 | 7.0 | 14.0 | 0.00 | 0.00 | 0.00 | 76 | 1010.3 |
| 20260507020505 | 59 | 199 | 6.0 | 13.0 | 0.00 | 0.00 | 0.00 | 75 | 1010.4 |
| 20260507020015 | 60 | 136 | 5.0 | 13.0 | 0.00 | 0.00 | 0.00 | 75 | 1010.4 |
| 20260507015504 | 60 | 203 | 4.0 | 12.0 | 0.00 | 0.00 | 0.00 | 75 | 1010.4 |
| 20260507015008 | 60 | 193 | 7.0 | 12.0 | 0.00 | 0.00 | 0.00 | 75 | 1010.7 |
| 20260507014517 | 60 | 214 | 7.0 | 12.0 | 0.00 | 0.00 | 0.00 | 74 | 1010.7 |
| 20260507014006 | 60 | 169 | 6.0 | 16.0 | 0.00 | 0.00 | 0.00 | 74 | 1010.7 |
| 20260507013508 | 60 | 203 | 8.0 | 16.0 | 0.00 | 0.00 | 0.00 | 74 | 1010.8 |
| 20260507013021 | 60 | 179 | 9.0 | 16.0 | 0.00 | 0.00 | 0.00 | 74 | 1010.4 |
| 20260507012509 | 61 | 199 | 7.0 | 16.0 | 0.00 | 0.00 | 0.00 | 73 | 1010.6 |
| 20260507012008 | 61 | 157 | 9.0 | 16.0 | 0.00 | 0.00 | 0.00 | 73 | 1010.9 |
| 20260507011523 | 61 | 176 | 9.0 | 16.0 | 0.00 | 0.00 | 0.00 | 72 | 1010.8 |
| 20260507011007 | 61 | 249 | 10.0 | 16.0 | 0.00 | 0.00 | 0.00 | 72 | 1011.2 |
| 20260507010511 | 62 | 216 | 10.0 | 15.0 | 0.00 | 0.00 | 0.00 | 72 | 1011.1 |
| 20260507010007 | 62 | 207 | 8.0 | 17.0 | 0.00 | 0.00 | 0.00 | 72 | 1010.9 |
| 20260507005505 | 62 | 224 | 9.0 | 18.0 | 0.00 | 0.00 | 0.00 | 71 | 1010.8 |
| 20260507005005 | 62 | 147 | 10.0 | 19.0 | 0.00 | 0.00 | 0.00 | 71 | 1011.0 |
| 20260507004514 | 62 | 158 | 11.0 | 20.0 | 0.00 | 0.00 | 0.00 | 70 | 1010.9 |
| 20260507004005 | 62 | 189 | 9.0 | 20.0 | 0.00 | 0.00 | 0.00 | 70 | 1011.0 |
| 20260507003504 | 62 | 165 | 10.0 | 20.0 | 0.00 | 0.00 | 0.00 | 70 | 1010.9 |
| 20260507003017 | 62 | 191 | 12.0 | 20.0 | 0.00 | 0.00 | 0.00 | 69 | 1010.8 |
| 20260507002509 | 63 | 243 | 10.0 | 20.0 | 0.00 | 0.00 | 0.00 | 69 | 1010.9 |
| 20260507002010 | 63 | 229 | 13.0 | 22.0 | 0.00 | 0.00 | 0.00 | 69 | 1011.1 |
| 20260507001521 | 63 | 233 | 13.0 | 22.0 | 0.00 | 0.00 | 0.00 | 68 | 1010.9 |
| 20260507001008 | 63 | 253 | 13.0 | 19.0 | 0.00 | 0.00 | 0.00 | 69 | 1010.9 |
| 20260507000509 | 63 | 191 | 11.0 | 19.0 | 0.00 | 0.00 | 0.00 | 69 | 1010.6 |
| 20260507000024 | 63 | 167 | 11.0 | 27.0 | 0.00 | 0.00 | 0.00 | 68 | 1010.7 |
| 20260506235511 | 63 | 158 | 15.0 | 27.0 | 0.00 | 0.00 | 0.00 | 68 | 1010.6 |
| 20260506235008 | 63 | 170 | 14.0 | 26.0 | 0.00 | 0.00 | 0.00 | 68 | 1010.6 |
| 20260506234510 | 63 | 148 | 11.0 | 29.0 | 0.00 | 0.00 | 0.00 | 69 | 1010.5 |
| 20260506234006 | 63 | 150 | 13.0 | 29.0 | 0.00 | 0.00 | 0.00 | 69 | 1010.5 |
| 20260506233506 | 63 | 219 | 13.0 | 27.0 | 0.00 | 0.00 | 0.00 | 69 | 1010.2 |
| 20260506233014 | 63 | 220 | 13.0 | 28.0 | 0.00 | 0.00 | 0.00 | 69 | 1010.4 |
| 20260506232506 | 64 | 200 | 15.0 | 28.0 | 0.00 | 0.00 | 0.00 | 68 | 1010.3 |
| 20260506232004 | 64 | 230 | 15.0 | 29.0 | 0.00 | 0.00 | 0.00 | 68 | 1010.6 |
| 20260506231519 | 64 | 233 | 18.0 | 33.0 | 0.00 | 0.00 | 0.00 | 68 | 1010.4 |
| 20260506231008 | 64 | 165 | 19.0 | 35.0 | 0.00 | 0.00 | 0.00 | 68 | 1010.4 |
| 20260506230509 | 64 | 203 | 18.0 | 35.0 | 0.00 | 0.00 | 0.00 | 68 | 1010.3 |
| 20260506230024 | 64 | 222 | 18.0 | 33.0 | 0.00 | 0.00 | 0.00 | 67 | 1010.1 |
| 20260506225508 | 64 | 206 | 13.0 | 26.0 | 0.00 | 0.00 | 0.00 | 67 | 1010.2 |
| 20260506225008 | 65 | 177 | 17.0 | 35.0 | 0.00 | 0.00 | 0.00 | 67 | 1010.3 |
| 20260506224526 | 65 | 247 | 16.0 | 35.0 | 0.00 | 0.00 | 0.00 | 67 | 1010.2 |
| 20260506224011 | 65 | 238 | 15.0 | 32.0 | 0.00 | 0.00 | 0.00 | 67 | 1010.1 |
| 20260506223513 | 65 | 262 | 20.0 | 35.0 | 0.00 | 0.00 | 0.00 | 66 | 1010.1 |
| 20260506223026 | 65 | 206 | 22.0 | 35.0 | 0.00 | 0.00 | 0.00 | 66 | 1010.1 |
| 20260506222505 | 65 | 198 | 22.0 | 34.0 | 0.00 | 0.00 | 0.00 | 66 | 1010.2 |
| 20260506222011 | 65 | 266 | 19.0 | 36.0 | 0.00 | 0.00 | 0.00 | 66 | 1010.2 |
| 20260506221516 | 66 | 252 | 21.0 | 36.0 | 0.00 | 0.00 | 0.00 | 65 | 1010.4 |
| 20260506221010 | 66 | 245 | 16.0 | 29.0 | 0.00 | 0.00 | 0.00 | 65 | 1010.4 |
| 20260506220507 | 66 | 259 | 15.0 | 37.0 | 0.00 | 0.00 | 0.00 | 65 | 1010.3 |
| 20260506220031 | 66 | 198 | 17.0 | 37.0 | 0.00 | 0.00 | 0.00 | 64 | 1010.4 |
| 20260506215507 | 66 | 217 | 22.0 | 38.0 | 0.00 | 0.00 | 0.00 | 64 | 1010.3 |
| 20260506215007 | 67 | 188 | 19.0 | 38.0 | 0.00 | 0.00 | 0.00 | 64 | 1010.4 |
| 20260506214526 | 67 | 214 | 18.0 | 35.0 | 0.00 | 0.00 | 0.00 | 63 | 1010.6 |
| 20260506214009 | 67 | 248 | 18.0 | 39.0 | 0.00 | 0.00 | 0.00 | 62 | 1010.4 |
| 20260506213509 | 67 | 195 | 18.0 | 39.0 | 0.00 | 0.00 | 0.00 | 62 | 1010.4 |
| 20260506213030 | 67 | 226 | 17.0 | 42.0 | 0.00 | 0.00 | 0.00 | 62 | 1010.4 |
| 20260506212507 | 67 | 181 | 24.0 | 42.0 | 0.00 | 0.00 | 0.00 | 62 | 1010.3 |
| 20260506212009 | 67 | 143 | 14.0 | 42.0 | 0.00 | 0.00 | 0.00 | 62 | 1010.5 |
| 20260506211529 | 67 | 201 | 19.0 | 37.0 | 0.00 | 0.00 | 0.00 | 63 | 1010.6 |
| 20260506211011 | 67 | 244 | 17.0 | 37.0 | 0.00 | 0.00 | 0.00 | 63 | 1010.4 |
| 20260506210504 | 67 | 187 | 17.0 | 36.0 | 0.00 | 0.00 | 0.00 | 63 | 1010.3 |
| 20260506210016 | 67 | 210 | 20.0 | 36.0 | 0.00 | 0.00 | 0.00 | 63 | 1010.5 |
| 20260506205510 | 67 | 222 | 21.0 | 34.0 | 0.00 | 0.00 | 0.00 | 63 | 1010.3 |
| 20260506205007 | 68 | 212 | 16.0 | 36.0 | 0.00 | 0.00 | 0.00 | 63 | 1010.6 |
| 20260506204521 | 68 | 190 | 20.0 | 36.0 | 0.00 | 0.00 | 0.00 | 63 | 1010.3 |
| 20260506204007 | 68 | 262 | 20.0 | 32.0 | 0.00 | 0.00 | 0.00 | 62 | 1010.2 |
| 20260506203512 | 68 | 240 | 16.0 | 39.0 | 0.00 | 0.00 | 0.00 | 63 | 1010.2 |
| 20260506203028 | 68 | 195 | 15.0 | 39.0 | 0.00 | 0.00 | 0.00 | 62 | 1010.1 |
| 20260506202508 | 68 | 212 | 18.0 | 36.0 | 0.00 | 0.00 | 0.00 | 62 | 1010.1 |
| 20260506202012 | 68 | 252 | 21.0 | 36.0 | 0.00 | 0.00 | 0.00 | 62 | 1009.9 |
| 20260506201528 | 68 | 217 | 21.0 | 42.0 | 0.00 | 0.00 | 0.00 | 63 | 1010.0 |
| 20260506201010 | 68 | 215 | 27.0 | 42.0 | 0.00 | 0.00 | 0.00 | 63 | 1009.9 |
| 20260506200510 | 68 | 176 | 26.0 | 37.0 | 0.00 | 0.00 | 0.00 | 62 | 1009.7 |
| 20260506200028 | 68 | 212 | 19.0 | 39.0 | 0.00 | 0.00 | 0.00 | 63 | 1009.8 |
| 20260506195509 | 68 | 158 | 18.0 | 39.0 | 0.00 | 0.00 | 0.00 | 64 | 1009.8 |
| 20260506195011 | 68 | 224 | 16.0 | 39.0 | 0.00 | 0.00 | 0.00 | 64 | 1009.9 |
| 20260506194518 | 68 | 170 | 21.0 | 39.0 | 0.00 | 0.00 | 0.00 | 63 | 1009.7 |
| 20260506194005 | 68 | 215 | 17.0 | 40.0 | 0.00 | 0.00 | 0.00 | 63 | 1009.9 |
| 20260506193509 | 68 | 226 | 26.0 | 40.0 | 0.00 | 0.00 | 0.00 | 64 | 1009.7 |
| 20260506193005 | 68 | 212 | 21.0 | 37.0 | 0.00 | 0.00 | 0.00 | 65 | 1009.9 |
| 20260506192503 | 68 | 234 | 16.0 | 37.0 | 0.00 | 0.00 | 0.00 | 66 | 1010.1 |
| 20260506192003 | 68 | 226 | 21.0 | 36.0 | 0.00 | 0.00 | 0.00 | 65 | 1010.0 |
| 20260506191507 | 67 | 153 | 22.0 | 36.0 | 0.00 | 0.00 | 0.00 | 65 | 1010.1 |
| 20260506191003 | 67 | 186 | 19.0 | 30.0 | 0.00 | 0.00 | 0.00 | 67 | 1010.4 |
| 20260506190503 | 67 | 216 | 20.0 | 28.0 | 0.00 | 0.00 | 0.00 | 67 | 1010.5 |
| 20260506190019 | 67 | 233 | 16.0 | 33.0 | 0.00 | 0.00 | 0.00 | 68 | 1010.3 |
| 20260506185503 | 66 | 236 | 20.0 | 33.0 | 0.00 | 0.00 | 0.00 | 68 | 1010.4 |
| 20260506185008 | 66 | 148 | 20.0 | 34.0 | 0.00 | 0.00 | 0.00 | 69 | 1010.6 |
| 20260506184517 | 66 | 218 | 19.0 | 34.0 | 0.00 | 0.00 | 0.00 | 69 | 1010.6 |
| 20260506184008 | 66 | 212 | 17.0 | 32.0 | 0.00 | 0.00 | 0.00 | 69 | 1010.8 |
| 20260506183508 | 66 | 184 | 19.0 | 32.0 | 0.00 | 0.00 | 0.00 | 70 | 1010.8 |
| 20260506183022 | 66 | 172 | 12.0 | 28.0 | 0.00 | 0.00 | 0.00 | 70 | 1011.0 |
| 20260506182507 | 66 | 237 | 16.0 | 35.0 | 0.00 | 0.00 | 0.00 | 70 | 1010.9 |
| 20260506182009 | 66 | 214 | 20.0 | 35.0 | 0.00 | 0.00 | 0.00 | 71 | 1010.8 |
| 20260506181525 | 66 | 166 | 17.0 | 32.0 | 0.00 | 0.00 | 0.00 | 71 | 1010.9 |
| 20260506181006 | 65 | 198 | 19.0 | 32.0 | 0.00 | 0.00 | 0.00 | 71 | 1011.0 |
| 20260506180506 | 65 | 231 | 21.0 | 29.0 | 0.00 | 0.00 | 0.00 | 71 | 1011.1 |
| 20260506180010 | 65 | 202 | 18.0 | 28.0 | 0.00 | 0.00 | 0.00 | 71 | 1011.1 |
| 20260506175506 | 66 | 258 | 16.0 | 33.0 | 0.00 | 0.00 | 0.00 | 71 | 1011.1 |
| 20260506175006 | 66 | 182 | 16.0 | 34.0 | 0.00 | 0.00 | 0.00 | 71 | 1011.0 |
| 20260506174510 | 66 | 219 | 23.0 | 37.0 | 0.00 | 0.00 | 0.00 | 71 | 1011.1 |
| 20260506174004 | 66 | 181 | 21.0 | 42.0 | 0.00 | 0.00 | 0.00 | 71 | 1011.2 |
| 20260506173504 | 66 | 206 | 24.0 | 42.0 | 0.00 | 0.00 | 0.00 | 71 | 1011.2 |
| 20260506173019 | 66 | 241 | 19.0 | 33.0 | 0.00 | 0.00 | 0.00 | 70 | 1011.3 |
| 20260506172505 | 66 | 212 | 17.0 | 32.0 | 0.00 | 0.00 | 0.00 | 70 | 1011.3 |
| 20260506172007 | 66 | 186 | 17.0 | 32.0 | 0.00 | 0.00 | 0.00 | 71 | 1011.3 |
| 20260506171523 | 66 | 226 | 22.0 | 31.0 | 0.00 | 0.00 | 0.00 | 72 | 1011.0 |
| 20260506171009 | 66 | 231 | 16.0 | 36.0 | 0.00 | 0.00 | 0.00 | 73 | 1011.1 |
| 20260506170510 | 65 | 269 | 20.0 | 36.0 | 0.00 | 0.00 | 0.00 | 73 | 1011.0 |
| 20260506170025 | 65 | 246 | 19.0 | 35.0 | 0.00 | 0.00 | 0.00 | 73 | 1011.1 |
| 20260506165511 | 65 | 154 | 20.0 | 32.0 | 0.00 | 0.00 | 0.00 | 73 | 1011.1 |
| 20260506165005 | 65 | 207 | 18.0 | 36.0 | 0.00 | 0.00 | 0.00 | 73 | 1010.9 |
| 20260506164511 | 65 | 216 | 19.0 | 36.0 | 0.00 | 0.00 | 0.00 | 73 | 1011.0 |